Погода в Амдерме

Погода в Амдерме : погода сейчас, прогноз погоды и архив. Всё, что Вы хотите узнать о погоде в Амдерме!

Хотите узнать прогноз погоды в Амдерме? Тогда Вам сюда: Погода в Амдерме

Поиск расширенной информации на нашем сайте:

Другие новости

Новости СМИ2

Главная страница сайта

Новости сайта

03.07.2017

Напоминаем, что на нашем специализированном сайте Метеоцентр.Азия вы можете получить высокодетализированные автоматические прогнозы погоды по пунктам России, СНГ и мира в авиационном формате (включающие направление и скорость ветра, видимость, явления погоды, количество и форму облачности, нижнюю и верхнюю границу облачности).

Рекомендуем: россельхозбанк онлайн заявка на кредит наличными оформить

Погода в Амдерме - сегодня

Время (UTC), дата Ветер
(°,м/с) 
Видим.   Явления Облачность Т
(°С)
Тd
(°С)
f(%) Тe
(°С)
Pmin
(гПа)
dP
(гПа)
Po
(мм)
O2
(г/м3)
Тmin Tmax R s Состояние
почвы
21 15.09.17 120 (ЮВ) 10 км    8/6 600 м средняя, верхняя 
[Sc|Ac As|Ci fib]
-0.2 -2.1 87 -3  1008.4  -0.2  752  303           
00 16.09.17 100 (В) 10 км    8/5 600 м средняя 
[Sc|Ac As]
-1.5 -3 89 -4  1008.5  752  305           
03 16.09.17 110 (В) 10 км    9/9 570 м 
[Sc]
-0.8 -3 85 -4  1007.9  -0.5  751  304  -1.8         
12 16.09.17 110 (В) 7{13}  10 км    4/0 средняя, верхняя 
[Ac trans|Ci fib]
+6.9 -0.1 61 +4  1003.9  -0.8  748  294           
03 17.09.17 110 (В) 10 км  {ливн. осадки}  9/0 средняя, верхняя 
[Ac trans|Cc]
+1.6 -0.2 88 -1  1000  -0.4  745  299  +1.1    0.0    влажная 
15 17.09.17 100 (В) 8-12{12}  10 км  {ливн. осадки}  9/8 500 м средняя 
[Sc|Ac trans]
+4.1 +1.6 84 +1  1002.7  0.9  747  296    +5.2  0.0     
21 17.09.17 100 (В) 5{13}  10 км    ясно 
+2.4 +0.6 88 1005.6  1.6  749  299           
03 18.09.17 080 (В) 7{10}  10 км    9/9 540 м 
[Cu Sc]
+4.8 +3.6 92 +2  1009.2  1.8  752  297  +1.9    0.0    влажная 
15 18.09.17 050 (СВ) 7-10{11}  10 км    10/10 540 м 
[Sc]
+4.9 +3.4 90 +2  1016.7  1.6  758  299    +6.1  0.0     
18 18.09.17 050 (СВ) 7{10}  10 км    10/10 600 м 
[Sc]
+4.7 +3.3 91 +2  1018.1  1.4  759  300           
21 18.09.17 050 (СВ) 6-10{11}  10 км    10/10 600 м 
[Sc]
+4.7 +3.2 90 +2  1019.3  1.2  760  300           
00 19.09.17 050 (СВ) 6{10}  10 км    10/10 540 м 
[Sc]
+4.8 +3.4 91 +2  1020.8  1.5  761  301           
03 19.09.17 050 (СВ) 10 км    9/9 540 м 
[Sc]
+4.8 +3.5 91 +3  1022  1.2  762  301  +4.5    0.0     
06 19.09.17 070 (В) 10 км    10/8 630 м средняя 
[Sc|Ac und]
+4.8 +3.1 89 +2  1023.4  1.4  763  302           
09 19.09.17 080 (В) 7-10{12}  10 км    10/8 700 м средняя 
[Sc|Ac und]
+5.1 +2.6 84 +2  1024.4  764  302           
12 19.09.17 080 (В) 10 км    9/9 450 м 
[Sc]
+5 +2.2 82 +3  1025.2  0.8  764  302           
15 19.09.17 090 (В) 10 км    3/0 средняя, верхняя 
[Ac trans|Ci fib]
+2.4 +0.9 90 1025.7  0.4  764  305    +5.5       
18 19.09.17 100 (В) 10 км    ясно 
+2.5 +0.5 87 1025.8  0.1  765  305           
21 19.09.17 130 (ЮВ) 10 км    ясно 
+0.2 -0.9 92 -2  1025.6  -0.2  764  308           
00 20.09.17 150 (ЮВ) 10 км    1/0 верхняя 
[Ci fib]
-1.3 -2.3 93 -3  1025.2  -0.5  764  310           
03 20.09.17 160 (Ю) 10 км    3/0 средняя, верхняя 
[Ac trans|Ci fib]
-1.4 -2.4 93 -2  1025.2  764  310  -1.5        замёрзшая 
06 20.09.17 300 (СЗ) 10 км    8/5 1000 м средняя 
[Sc|Ac trans]
+2.6 +0.5 86 +2  1025.5  0.4  764  305  -1.5         
09 20.09.17 340 (С) 10 км    6/1 600 м верхняя 
[Cu hum|Ci fib]
+4.4 +1.6 82 +5  1025.4  -0.1  764  303           
12 20.09.17 270 (З) 10 км    9/0 средняя, верхняя 
[Ac As|Ci fib]
+4.6 +1.3 79 +2  1025.2  -0.2  764  303           
15 20.09.17 280 (З) 10 км    10/0 средняя 
[Ac As]
+2.6 +0.8 88 +1  1025.6  0.4  764  305    +5.1       
Время (UTC), дата Ветер
(°,м/с) 
Видим.   Явления Облачность Т
(°С)
Тd
(°С)
f(%) Тe
(°С)
Pmin
(гПа)
dP
(гПа)
Po
(мм)
O2
(г/м3)
Тmin Tmax R s Состояние
почвы

Для получения пояснительной информации подведите курсор к названию столбца.

ПОГОДА в Амдерме - архив

Всё, что Вы хотите узнать о погоде в Амдерме - удобно и подробно!

Выберите нужную дату (начиная с 1 января 2015* года) и нажмите кнопку "Найти".
Будут отображены архивные сводки погоды по пункту Амдерма, начиная с указанной даты.


Отображать данные в формате CSV (для использования в таблицах Excel)


Внимание! Наш архив погоды предназначен исключительно для личного некоммерческого использования в познавательных целях. Если Вам необходимы официальные справки о состоянии погоды (для производственных, юридических, коммерческих и т.п. целей), обращайтесь в органы Росгидромета.

*Примечание: данная дата относится к архиву по метеостанциям СССР (Россия, СНГ, Балтия).
Архив по метеостанциям Зарубежной Европы и Азии (кроме Китая) хранится 10 дней, по другим регионам земного шара (Китай, Африка, Америка, Австралия, Океания) - 1 день.

Амдерма - район местоположения метеостанции


Название, широта, долгота, высота метеостанции:
Амдерма 69.8°ш. 61.7°д. 49 м над ур. моря [Российская Федерация]

Дополнительная информация

В oтличие oт бoльшинства пoгoдных сайтoв мы публикуем пoдрoбную метеoинфoрмацию в детальнoм прoфессиoнальнoм фoрмате.

Характеристики температуры и влажнoсти вoздуха измеряются на высoте 2 м в тени вдали oт зданий и деревьев.
Скoрoсть ветра измеряется на высoте 10 м (на урoвне рoста челoвека скoрoсть ветра ниже в 1.5-2 раза). Если метеoстанция нахoдится в гoрoде или в лесу, тo скoрoсть ветра занижена на 2-4 м/с пo сравнению с oткрытым местoм. Скoрoсть ветра над акватoриями крупных рек и oзёр, а также на вершинах хoлмoв на 2-5 м/с выше, чем в oбычных услoвиях.
Атмoсфернoе давление в разных тoчках местнoсти мoжет значительнo oтличаться oт давления на метеoстанции, в зависимoсти oт услoвий рельефа (при пoдъёме на 10 м давление пoнижается примернo на 1 мм рт.ст.).